Location: El Limón
(10.3059°N, 67.6321°W)
Time: 14:03:28
(UTC+00:00)

Cosmos 1867 - Pass Details

Date: 14 April 2024
Orbit: 772 x 802 km, 65.0° (Epoch: 28 May)

Event Time Altitude Azimuth Distance (km) Brightness Sun altitude
Rises 08:24:07 0° 342° (NNW) 3,295 6.8 -28.6°
Reaches altitude 10° 08:26:34 10° 344° (NNW) 2,363 6.0 -28.1°
Maximum altitude 08:31:59 70° 68° (ENE) 843 3.8 -26.8°
Drops below altitude 10° 08:37:21 10° 151° (SSE) 2,346 6.1 -25.5°
Sets 08:39:46 0° 153° (SSE) 3,270 6.9 -24.9°
